| time (UTC) | temp F | wind direction | speed MPH | gust MPH | rain 1hr in | rain 24hr in | rain mn in | humidity % | barometer mb |
| 20260507131538 | 54 | 0 | 0.0 | 0.0 | 0.00 | 0.00 | 0.00 | 91 | 1016.3 |
| 20260507130048 | 54 | 0 | 0.0 | 0.0 | 0.00 | 0.00 | 0.00 | 91 | 1016.5 |
| 20260507124535 | 54 | 0 | 0.0 | 0.0 | 0.00 | 0.00 | 0.00 | 91 | 1016.3 |
| 20260507123040 | 54 | 0 | 0.0 | 2.0 | 0.00 | 0.00 | 0.00 | 90 | 1016.3 |
| 20260507121537 | 54 | 0 | 0.0 | 3.0 | 0.00 | 0.00 | 0.00 | 90 | 1016.1 |
| 20260507120039 | 54 | 0 | 0.0 | 1.0 | 0.00 | 0.00 | 0.00 | 89 | 1016.3 |
| 20260507114545 | 54 | 0 | 0.0 | 1.0 | 0.00 | 0.00 | 0.00 | 90 | 1016.2 |
| 20260507113038 | 54 | 0 | 0.0 | 0.0 | 0.00 | 0.00 | 0.00 | 90 | 1016.3 |
| 20260507111535 | 54 | 0 | 0.0 | 0.0 | 0.00 | 0.00 | 0.00 | 90 | 1016.5 |
| 20260507110041 | 55 | 0 | 0.0 | 0.0 | 0.00 | 0.00 | 0.00 | 90 | 1016.6 |
| 20260507104540 | 55 | 0 | 0.0 | 0.0 | 0.00 | 0.00 | 0.00 | 90 | 1016.6 |
| 20260507103044 | 55 | 0 | 0.0 | 0.0 | 0.00 | 0.00 | 0.00 | 90 | 1016.6 |
| 20260507101538 | 55 | 0 | 0.0 | 0.0 | 0.00 | 0.00 | 0.00 | 90 | 1016.6 |
| 20260507100038 | 55 | 0 | 0.0 | 1.0 | 0.00 | 0.00 | 0.00 | 89 | 1016.5 |
| 20260507094544 | 55 | 128 | 0.0 | 1.0 | 0.00 | 0.00 | 0.00 | 89 | 1016.7 |
| 20260507093036 | 55 | 0 | 0.0 | 1.0 | 0.00 | 0.00 | 0.00 | 89 | 1016.7 |
| 20260507091538 | 55 | 0 | 0.0 | 1.0 | 0.00 | 0.00 | 0.00 | 88 | 1017.1 |
| 20260507090036 | 55 | 0 | 0.0 | 1.0 | 0.00 | 0.00 | 0.00 | 88 | 1017.3 |
| 20260507084539 | 55 | 0 | 0.0 | 1.0 | 0.00 | 0.00 | 0.00 | 88 | 1017.6 |
| 20260507083035 | 56 | 0 | 0.0 | 0.0 | 0.00 | 0.00 | 0.00 | 89 | 1017.6 |
| 20260507081539 | 56 | 0 | 0.0 | 0.0 | 0.00 | 0.00 | 0.00 | 89 | 1017.7 |
| 20260507080039 | 56 | 0 | 0.0 | 0.0 | 0.00 | 0.00 | 0.00 | 88 | 1017.8 |
| 20260507074536 | 56 | 0 | 0.0 | 0.0 | 0.00 | 0.00 | 0.00 | 88 | 1017.5 |
| 20260507073035 | 56 | 0 | 0.0 | 0.0 | 0.00 | 0.00 | 0.00 | 87 | 1017.6 |
| 20260507071538 | 56 | 0 | 0.0 | 0.0 | 0.00 | 0.00 | 0.00 | 87 | 1017.6 |
| 20260507070049 | 57 | 0 | 0.0 | 0.0 | 0.00 | 0.00 | 0.00 | 86 | 1017.7 |
| 20260507064543 | 57 | 0 | 0.0 | 0.0 | 0.00 | 0.00 | 0.00 | 86 | 1017.8 |
| 20260507063039 | 57 | 0 | 0.0 | 0.0 | 0.00 | 0.00 | 0.00 | 86 | 1017.9 |
| 20260507061538 | 57 | 0 | 0.0 | 0.0 | 0.00 | 0.00 | 0.00 | 85 | 1017.8 |
| 20260507060037 | 57 | 0 | 0.0 | 0.0 | 0.00 | 0.00 | 0.00 | 85 | 1018.0 |
| 20260507054535 | 58 | 0 | 0.0 | 0.0 | 0.00 | 0.00 | 0.00 | 84 | 1017.9 |
| 20260507053035 | 58 | 0 | 0.0 | 0.0 | 0.00 | 0.00 | 0.00 | 84 | 1017.9 |
| 20260507051535 | 58 | 0 | 0.0 | 0.0 | 0.00 | 0.00 | 0.00 | 83 | 1017.9 |
| 20260507050039 | 58 | 0 | 0.0 | 0.0 | 0.00 | 0.00 | 0.00 | 82 | 1017.9 |
| 20260507044548 | 58 | 0 | 0.0 | 0.0 | 0.00 | 0.00 | 0.00 | 82 | 1018.0 |
| 20260507043036 | 59 | 0 | 0.0 | 0.0 | 0.00 | 0.00 | 0.00 | 82 | 1017.9 |
| 20260507041535 | 59 | 0 | 0.0 | 0.0 | 0.00 | 0.00 | 0.00 | 82 | 1017.8 |
| 20260507040042 | 59 | 0 | 0.0 | 0.0 | 0.00 | 0.00 | 0.00 | 81 | 1017.8 |
| 20260507034543 | 60 | 0 | 0.0 | 1.0 | 0.00 | 0.00 | 0.00 | 81 | 1017.6 |
| 20260507033048 | 60 | 0 | 0.0 | 3.0 | 0.00 | 0.00 | 0.00 | 80 | 1017.5 |
| 20260507031551 | 60 | 0 | 0.0 | 3.0 | 0.00 | 0.00 | 0.00 | 79 | 1017.5 |
| 20260507030042 | 61 | 0 | 0.0 | 1.0 | 0.00 | 0.00 | 0.00 | 79 | 1017.2 |
| 20260507024555 | 62 | 0 | 0.0 | 3.0 | 0.00 | 0.00 | 0.00 | 77 | 1016.9 |
| 20260507023036 | 63 | 0 | 0.0 | 3.0 | 0.00 | 0.00 | 0.00 | 75 | 1016.9 |
| 20260507021537 | 64 | 0 | 0.0 | 4.0 | 0.00 | 0.00 | 0.00 | 72 | 1016.8 |
| 20260507020047 | 65 | 317 | 1.0 | 6.0 | 0.00 | 0.00 | 0.00 | 70 | 1016.8 |
| 20260507014549 | 66 | 301 | 2.0 | 6.0 | 0.00 | 0.00 | 0.00 | 67 | 1016.7 |
| 20260507013040 | 67 | 0 | 1.0 | 8.0 | 0.00 | 0.00 | 0.00 | 67 | 1016.7 |
| 20260507011541 | 68 | 306 | 2.0 | 9.0 | 0.00 | 0.00 | 0.00 | 65 | 1016.7 |
| 20260507010042 | 69 | 303 | 2.0 | 8.0 | 0.00 | 0.00 | 0.00 | 66 | 1016.6 |
| 20260507004535 | 69 | 324 | 3.0 | 9.0 | 0.00 | 0.00 | 0.00 | 62 | 1016.5 |
| 20260507003039 | 70 | 339 | 1.0 | 10.0 | 0.00 | 0.00 | 0.00 | 64 | 1016.6 |
| 20260507001537 | 71 | 296 | 3.0 | 10.0 | 0.00 | 0.00 | 0.00 | 61 | 1016.4 |
| 20260507000037 | 72 | 0 | 2.0 | 9.0 | 0.00 | 0.00 | 0.00 | 59 | 1016.3 |
| 20260506234545 | 72 | 315 | 3.0 | 7.0 | 0.00 | 0.00 | 0.00 | 57 | 1016.3 |
| 20260506233039 | 72 | 296 | 3.0 | 9.0 | 0.00 | 0.00 | 0.00 | 57 | 1016.4 |
| 20260506231537 | 73 | 5 | 2.0 | 8.0 | 0.00 | 0.00 | 0.00 | 53 | 1016.4 |
| 20260506230038 | 73 | 298 | 2.0 | 10.0 | 0.00 | 0.00 | 0.00 | 56 | 1016.5 |
| 20260506224537 | 73 | 355 | 3.0 | 7.0 | 0.00 | 0.00 | 0.00 | 57 | 1016.6 |
| 20260506223035 | 73 | 340 | 3.0 | 8.0 | 0.00 | 0.00 | 0.00 | 56 | 1016.9 |
| 20260506221535 | 72 | 311 | 2.0 | 9.0 | 0.00 | 0.00 | 0.00 | 59 | 1017.0 |
| 20260506220042 | 73 | 293 | 2.0 | 9.0 | 0.00 | 0.00 | 0.00 | 61 | 1017.1 |
| 20260506214538 | 72 | 314 | 2.0 | 8.0 | 0.00 | 0.00 | 0.00 | 62 | 1017.3 |
| 20260506213038 | 72 | 267 | 3.0 | 8.0 | 0.00 | 0.00 | 0.00 | 62 | 1017.4 |
| 20260506211534 | 73 | 305 | 1.0 | 8.0 | 0.00 | 0.00 | 0.00 | 65 | 1017.6 |
| 20260506210036 | 72 | 355 | 3.0 | 9.0 | 0.00 | 0.00 | 0.00 | 65 | 1017.6 |
| 20260506204541 | 72 | 320 | 1.0 | 6.0 | 0.00 | 0.00 | 0.00 | 66 | 1017.7 |
| 20260506203040 | 71 | 300 | 1.0 | 9.0 | 0.00 | 0.00 | 0.00 | 67 | 1017.7 |
| 20260506201539 | 71 | 273 | 1.0 | 9.0 | 0.00 | 0.00 | 0.00 | 67 | 1018.0 |
| 20260506200039 | 70 | 295 | 2.0 | 6.0 | 0.00 | 0.00 | 0.00 | 67 | 1018.1 |
| 20260506194535 | 69 | 244 | 2.0 | 7.0 | 0.00 | 0.00 | 0.00 | 67 | 1018.3 |
| 20260506193037 | 69 | 246 | 2.0 | 6.0 | 0.00 | 0.00 | 0.00 | 68 | 1018.4 |
| 20260506191537 | 69 | 292 | 2.0 | 9.0 | 0.00 | 0.00 | 0.00 | 70 | 1018.6 |
| 20260506190039 | 68 | 324 | 2.0 | 7.0 | 0.00 | 0.00 | 0.00 | 71 | 1018.7 |
| 20260506184546 | 68 | 0 | 1.0 | 7.0 | 0.00 | 0.00 | 0.00 | 71 | 1018.7 |
| 20260506183039 | 68 | 300 | 0.0 | 6.0 | 0.00 | 0.00 | 0.00 | 70 | 1018.8 |
| 20260506181539 | 68 | 0 | 1.0 | 6.0 | 0.00 | 0.00 | 0.00 | 71 | 1019.1 |
| 20260506180037 | 68 | 344 | 1.0 | 6.0 | 0.00 | 0.00 | 0.00 | 71 | 1018.9 |
| 20260506174535 | 67 | 263 | 1.0 | 5.0 | 0.00 | 0.00 | 0.00 | 72 | 1018.9 |
| 20260506173052 | 66 | 294 | 0.0 | 7.0 | 0.00 | 0.00 | 0.00 | 72 | 1018.8 |
| 20260506171539 | 65 | 0 | 0.0 | 4.0 | 0.00 | 0.00 | 0.00 | 73 | 1019.0 |
| 20260506170041 | 63 | 0 | 0.0 | 4.0 | 0.00 | 0.00 | 0.00 | 73 | 1019.1 |
| 20260506164537 | 64 | 292 | 0.0 | 4.0 | 0.00 | 0.00 | 0.00 | 73 | 1019.2 |
| 20260506163042 | 64 | 346 | 1.0 | 4.0 | 0.00 | 0.00 | 0.00 | 73 | 1019.3 |
| 20260506161535 | 64 | 0 | 0.0 | 3.0 | 0.00 | 0.00 | 0.00 | 75 | 1019.2 |
| 20260506160046 | 62 | 0 | 0.0 | 2.0 | 0.00 | 0.00 | 0.00 | 78 | 1019.2 |
| 20260506154545 | 60 | 198 | 0.0 | 5.0 | 0.00 | 0.00 | 0.00 | 82 | 1019.0 |
| 20260506153035 | 61 | 0 | 0.0 | 1.0 | 0.00 | 0.00 | 0.00 | 80 | 1019.0 |
| 20260506151535 | 60 | 0 | 0.0 | 3.0 | 0.00 | 0.00 | 0.00 | 77 | 1019.0 |
| 20260506150035 | 58 | 135 | 2.0 | 6.0 | 0.00 | 0.00 | 0.00 | 78 | 1019.1 |
| 20260506144539 | 57 | 105 | 2.0 | 6.0 | 0.00 | 0.00 | 0.00 | 77 | 1019.0 |
| 20260506143040 | 56 | 138 | 0.0 | 6.0 | 0.00 | 0.00 | 0.00 | 79 | 1018.8 |
| 20260506141535 | 55 | 126 | 2.0 | 7.0 | 0.00 | 0.00 | 0.00 | 80 | 1018.8 |
| 20260506140035 | 54 | 128 | 2.0 | 4.0 | 0.00 | 0.00 | 0.00 | 83 | 1018.6 |
| 20260506134536 | 52 | 0 | 2.0 | 4.0 | 0.00 | 0.00 | 0.00 | 84 | 1018.5 |
| 20260506133034 | 52 | 0 | 1.0 | 4.0 | 0.00 | 0.00 | 0.00 | 85 | 1018.3 |